Skip Page Navigation
NASA JPL Caltech
NASA Logo - Jet Propulsion Laboratory + View the NASA Portal
+ Near-Earth Object (NEO) Program
Search JPL
JPL Home Earth Solar System Stars & Galaxies Technology
JPL Solar System Dynamics
BODIES ORBITS EPHEMERIDES TOOLS PHYSICAL DATA DISCOVERY FAQ SITE MAP
JPL Small-Body Database Browser
Search: [ help ]  
34696 Risoldi (2001 OV12)
Classification: Main-belt Asteroid          SPK-ID: 2034696
Ephemeris | Orbit Diagram | Orbital Elements | Physical Parameters | Discovery Circumstances ]

[ show orbit diagram ]
Orbital Elements at Epoch 2456400.5 (2013-Apr-18.0) TDB
Reference: MPO233706 (heliocentric ecliptic J2000)
 Element Value Uncertainty (1-sigma)   Units 
e 0.1304716 n/a  
a 2.5373116 n/a AU
q 2.2062645 n/a AU
i 13.35000 n/a deg
node 290.86604 n/a deg
peri 208.70082 n/a deg
M 132.61567 n/a deg
tp 2455856.6846297
(2011-Oct-22.18462970)
n/a JED
period 1476.2473644
4.04
n/a
n/a
d
yr
n 0.24386157 n/a deg/d
Q 2.8683587 n/a AU
  Orbit Determination Parameters
   # obs. used (total)      615  
   first obs. used      1992-??-??  
   last obs. used      2012-06-19  
   # oppositions      14  
   planetary ephem.      DE403  
   condition code      0  
   fit RMS      0.51  
   data source      MPC:mpn  
   producer      MPCLINUX  

Additional Information
 T_jup = 3.398 

Ephemeris | Orbit Diagram | Orbital Elements | Physical Parameters | Discovery Circumstances ]

Physical Parameter Table
Parameter Symbol Value Units Sigma Reference Notes
absolute magnitude H 13.8 mag n/a PDS3 (MPO 21839)  

34696 Risoldi           Discovered 2001 July 21 by A. Boattini and M. Tombelli at San Marcello Pistoiese.
Vairo Risoldi (b. 1951) is an amateur astronomer at the S. Lucia Stroncone Observatory. Thanks to his skills in electronics and computer science, he made the telescope control interface and various software packages for the astrometric reduction of CCD frames, extensively used by other Italian teams as well.
NOTE: some special characters may not display properly (any characters within {} are an attempt to place the proper accent above a character)
Reference: 20030806/MPCPages.arcLast Updated: 2003-10-02

Alternate Designations
 2001 OV12 = 1985 QW2 = 2000 JA82 
Ephemeris | Orbit Diagram | Orbital Elements | Physical Parameters | Discovery Circumstances ]
ABOUT SSD CREDITS/AWARDS PRIVACY/COPYRIGHT GLOSSARY LINKS
FirstGov 2013-May-22 23:15 UT
(server date/time)  
NASA Home Page
Site Manager:   Donald K. Yeomans
Webmaster  Alan B. Chamberlin